User: anonymous   Login
Location: *
(51.1248°S, 108.4023°W)
Time: 03:58:06
(UTC+00:00)
Language:

PAYLOAD B - Orbit

View from above orbital plane
View from above orbital plane
View from above satellite
View from above satellite

Ground track
Ground track

The orbit data is extracted from the following two-line orbital elements,

1 27431U 02024B   21260.30321614  .00000019  00000-0  36853-4 0  9995
2 27431  99.1476 271.7313 0016362  65.2488 295.0382 14.09729417995163
Epoch (UTC): 17 September 2021 07:16:37
Eccentricity: 0.0016362
inclination: 99.1476°
perigee height: 848 km
apogee height: 872 km
right ascension of ascending node: 271.7313°
argument of perigee: 65.2488°
revolutions per day: 14.09729417
mean anomaly at epoch: 295.0382°
orbit number at epoch: 99516

The dashed part of the orbit path shows where the satellite is in the earth's shadow,  

DLR